A/2021 F1

Japanese version
Home page
Updated on January 17, 2022

---------------------------------------------------------------------

* Profile

Discovery Date March 19, 2021
Magnitude 21.81 mag
Discoverer Pan-STARRS 1 telescope (Haleakala)

* Pictures

* Orbital Elements

Epoch 2022 Jan. 21.0 TT = JDT 2459600.5
T 2022 Apr. 6.87406 TT                                  Rudenko
q   0.9954920            (2000.0)            P               Q
z  +0.0042374      Peri.  146.82231     +0.70299072     +0.60122214
 +/-0.0000041      Node   203.45131     +0.23496078     +0.30786104
e   0.9957817      Incl.  107.32418     +0.67126558     -0.73739644
H   17.5
From 145 observations 2021 Mar. 19-Dec. 10, mean residual 0".4.

* Finding Charts

* Magnitudes Graph

        m1 = 13.0 + 5 log d + 7.5 log r

---------------------------------------------------------------------

The orbital elements are published on M.P.E.C. 2022-A21.
The charts are made with StellaNavigator Ver.10 (AstroArts).
The magnitudes graphs are made with Comet for Windows.

---------------------------------------------------------------------

Copyright(C) Seiichi Yoshida (comet@aerith.net). All rights reserved.